Torna al catalogo

COSMOS 1348 DEB

LostHEO
NORAD 32777·DEBRIS·🇷🇺 Russia

Lanciato Apr 7, 1982 da Plesetsk Cosmodrome

Loading…

Prossimi Passaggi (prossime 24 ore)

TLE

ObsoletoSource: Space-Track

Epoca: Apr 4, 2011, 06:01 UTC

1 32777U 82029L   11094.25079110  .00000351  00000-0  10000-3 0  9990
2 32777  71.7480   6.4260 5069678 149.9533 252.6584  1.98145763 32469

Traccia COSMOS 1348 DEB in tempo reale con AllMySat

Download on the App Store